QPF
0.01 0.01 0.01 0.01 0.01 0.00 0.00 0.01 0.01 0.01 0.01 0.02 0.01 0.01 0.01 0.01 0.00 0.01 0.01 0.01 0.01 0.02 0.03 0.03 0.02 0.02 0.03 0.05 0.06 0.07 0.07 0.06 0.06 0.06 0.10 0.12 0.14 0.13 0.10 0.12 0.14 0.10 0.09 0.07
0.01 0.01 0.01 0.00 0.00 0.00 0.00 0.00 0.01 0.01 0.01 0.01 0.01 0.01 0.01 0.01 0.01 0.01 0.01 0.00 0.01 0.01 0.02 0.03 0.03 0.02 0.03 0.05 0.07 0.08 0.07 0.07 0.06 0.05 0.08 0.11 0.13 0.14 0.15 0.14 0.15 0.12 0.08 0.07
0.01 0.00 0.00 0.00 0.01 0.01 0.01 0.00 0.00 0.01 0.02 0.01 0.01 0.01 0.01 0.01 0.01 0.01 0.01 0.00 0.01 0.01 0.01 0.01 0.03 0.03 0.03 0.05 0.07 0.08 0.09 0.08 0.08 0.05 0.05 0.08 0.11 0.11 0.11 0.14 0.16 0.14 0.10 0.07
0.00 0.00 0.00 0.00 0.01 0.01 0.01 0.00 0.00 0.01 0.02 0.03 0.02 0.01 0.02 0.02 0.01 0.01 0.01 0.01 0.01 0.01 0.01 0.01 0.02 0.03 0.03 0.04 0.06 0.09 0.10 0.09 0.10 0.07 0.04 0.06 0.07 0.09 0.10 0.09 0.11 0.13 0.12 0.10
0.01 0.00 0.00 0.00 0.01 0.01 0.01 0.01 0.01 0.01 0.02 0.02 0.02 0.01 0.01 0.01 0.02 0.02 0.02 0.02 0.01 0.01 0.01 0.01 0.02 0.02 0.03 0.03 0.05 0.08 0.10 0.11 0.10 0.10 0.06 0.04 0.05 0.06 0.07 0.09 0.09 0.11 0.12 0.12
0.00 0.00 0.00 0.00 0.00 0.00 0.01 0.01 0.01 0.02 0.03 0.04 0.02 0.02 0.01 0.02 0.02 0.02 0.02 0.02 0.01 0.01 0.01 0.01 0.02 0.03 0.03 0.03 0.04 0.07 0.09 0.12 0.11 0.11 0.10 0.05 0.04 0.05 0.05 0.07 0.08 0.10 0.13 0.12
0.01 0.00 0.00 0.00 0.00 0.00 0.01 0.02 0.03 0.04 0.05 0.03 0.01 0.01 0.01 0.02 0.02 0.03 0.02 0.02 0.01 0.01 0.01 0.01 0.02 0.02 0.03 0.04 0.04 0.05 0.07 0.10 0.10 0.09 0.13 0.09 0.05 0.04 0.04 0.05 0.07 0.09 0.12 0.15
0.01 0.01 0.00 0.00 0.00 0.01 0.01 0.02 0.02 0.03 0.02 0.01 0.01 0.01 0.01 0.01 0.02 0.02 0.02 0.02 0.01 0.01 0.01 0.01 0.02 0.02 0.03 0.04 0.04 0.04 0.06 0.07 0.08 0.07 0.10 0.14 0.07 0.04 0.03 0.03 0.05 0.07 0.10 0.13
0.02 0.01 0.00 0.00 0.00 0.00 0.00 0.01 0.01 0.02 0.02 0.01 0.01 0.01 0.01 0.01 0.01 0.01 0.01 0.01 0.01 0.01 0.01 0.01 0.01 0.01 0.03 0.04 0.04 0.05 0.06 0.06 0.07 0.06 0.06 0.11 0.12 0.05 0.03 0.02 0.02 0.03 0.06 0.09
0.03 0.02 0.01 0.00 0.01 0.01 0.01 0.01 0.02 0.03 0.03 0.02 0.01 0.01 0.01 0.01 0.01 0.01 0.01 0.01 0.01 0.01 0.01 0.01 0.01 0.01 0.02 0.04 0.05 0.05 0.07 0.07 0.07 0.07 0.05 0.07 0.11 0.09 0.05 0.03 0.02 0.02 0.03 0.05
0.02 0.02 0.01 0.00 0.01 0.01 0.01 0.01 0.02 0.03 0.03 0.02 0.01 0.01 0.01 0.01 0.01 0.01 0.01 0.02 0.02 0.01 0.01 0.01 0.01 0.01 0.02 0.03 0.04 0.04 0.05 0.06 0.06 0.07 0.06 0.06 0.08 0.10 0.06 0.04 0.03 0.02 0.03 0.04
0.01 0.02 0.02 0.01 0.00 0.00 0.01 0.01 0.01 0.02 0.02 0.02 0.01 0.01 0.02 0.01 0.01 0.01 0.01 0.01 0.01 0.01 0.01 0.00 0.00 0.01 0.01 0.02 0.03 0.04 0.04 0.05 0.05 0.06 0.06 0.06 0.07 0.08 0.08 0.04 0.03 0.03 0.03 0.03
0.01 0.03 0.02 0.01 0.01 0.01 0.01 0.01 0.01 0.01 0.02 0.01 0.01 0.01 0.01 0.01 0.01 0.01 0.01 0.01 0.01 0.01 0.00 0.00 0.00 0.01 0.01 0.02 0.02 0.03 0.04 0.05 0.05 0.05 0.06 0.07 0.07 0.07 0.08 0.07 0.04 0.03 0.03 0.03
0.02 0.03 0.01 0.00 0.00 0.00 0.01 0.01 0.01 0.01 0.02 0.01 0.01 0.01 0.01 0.01 0.01 0.02 0.02 0.01 0.01 0.01 0.01 0.01 0.01 0.01 0.01 0.02 0.02 0.03 0.03 0.04 0.05 0.05 0.05 0.06 0.06 0.05 0.06 0.07 0.06 0.04 0.04 0.03
0.02 0.03 0.01 0.01 0.00 0.00 0.00 0.00 0.01 0.01 0.01 0.01 0.01 0.01 0.01 0.01 0.02 0.02 0.02 0.02 0.01 0.01 0.01 0.01 0.01 0.01 0.01 0.02 0.02 0.03 0.03 0.04 0.05 0.05 0.05 0.04 0.04 0.04 0.05 0.05 0.06 0.06 0.05 0.04
0.01 0.02 0.01 0.01 0.00 0.00 0.00 0.00 0.00 0.01 0.01 0.01 0.01 0.01 0.01 0.01 0.01 0.01 0.01 0.02 0.02 0.02 0.02 0.02 0.02 0.01 0.02 0.02 0.02 0.02 0.03 0.03 0.04 0.04 0.05 0.05 0.04 0.03 0.04 0.05 0.05 0.06 0.06 0.06
0.02 0.02 0.02 0.01 0.01 0.01 0.01 0.01 0.00 0.01 0.01 0.01 0.01 0.01 0.01 0.01 0.01 0.01 0.02 0.02 0.02 0.02 0.02 0.02 0.02 0.02 0.01 0.01 0.02 0.02 0.03 0.03 0.04 0.04 0.04 0.05 0.04 0.04 0.03 0.03 0.04 0.05 0.06 0.07
0.02 0.02 0.02 0.01 0.01 0.01 0.01 0.01 0.00 0.01 0.01 0.01 0.02 0.01 0.01 0.02 0.02 0.02 0.02 0.02 0.02 0.02 0.02 0.02 0.02 0.02 0.01 0.01 0.01 0.02 0.02 0.03 0.04 0.04 0.03 0.04 0.04 0.04 0.03 0.03 0.03 0.04 0.04 0.06
0.01 0.02 0.02 0.02 0.01 0.01 0.01 0.01 0.01 0.01 0.01 0.01 0.01 0.01 0.01 0.02 0.01 0.01 0.02 0.02 0.02 0.02 0.02 0.02 0.02 0.02 0.02 0.01 0.01 0.01 0.02 0.02 0.03 0.04 0.03 0.03 0.04 0.04 0.04 0.04 0.03 0.03 0.04 0.05
0.01 0.02 0.02 0.02 0.02 0.01 0.01 0.01 0.01 0.01 0.01 0.01 0.01 0.01 0.01 0.01 0.01 0.01 0.02 0.02 0.02 0.02 0.02 0.02 0.02 0.02 0.02 0.02 0.01 0.01 0.02 0.02 0.03 0.04 0.04 0.04 0.04 0.03 0.03 0.03 0.04 0.03 0.04 0.04
0.01 0.02 0.02 0.02 0.02 0.02 0.01 0.01 0.01 0.02 0.02 0.01 0.01 0.01 0.01 0.01 0.02 0.02 0.01 0.01 0.01 0.01 0.01 0.01 0.01 0.02 0.02 0.02 0.02 0.01 0.02 0.02 0.03 0.04 0.04 0.04 0.04 0.03 0.02 0.03 0.03 0.03 0.03 0.04
0.01 0.01 0.02 0.02 0.02 0.01 0.01 0.01 0.02 0.02 0.02 0.01 0.01 0.01 0.01 0.01 0.01 0.01 0.01 0.01 0.01 0.01 0.01 0.01 0.01 0.01 0.01 0.01 0.01 0.02 0.02 0.02 0.03 0.03 0.03 0.05 0.04 0.03 0.03 0.03 0.03 0.03 0.04 0.04
0.00 0.01 0.01 0.02 0.02 0.02 0.02 0.02 0.02 0.02 0.02 0.01 0.01 0.01 0.01 0.01 0.00 0.00 0.00 0.00 0.01 0.00 0.01 0.01 0.01 0.01 0.01 0.02 0.02 0.02 0.02 0.02 0.02 0.03 0.03 0.04 0.03 0.02 0.03 0.03 0.03 0.04 0.04 0.04
0.00 0.01 0.01 0.02 0.01 0.02 0.01 0.01 0.01 0.01 0.01 0.01 0.01 0.01 0.01 0.01 0.01 0.00 0.00 0.00 0.01 0.00 0.00 0.01 0.01 0.01 0.01 0.02 0.02 0.02 0.02 0.02 0.03 0.03 0.04 0.04 0.04 0.03 0.03 0.04 0.04 0.04 0.05 0.04
0.01 0.01 0.01 0.01 0.01 0.01 0.01 0.01 0.01 0.01 0.00 0.00 0.01 0.01 0.01 0.01 0.01 0.00 0.00 0.00 0.01 0.01 0.01 0.01 0.01 0.01 0.02 0.02 0.02 0.02 0.02 0.02 0.03 0.03 0.04 0.04 0.04 0.04 0.04 0.03 0.04 0.05 0.06 0.06
0.01 0.01 0.01 0.01 0.01 0.01 0.01 0.00 0.00 0.00 0.00 0.00 0.00 0.01 0.01 0.01 0.01 0.01 0.01 0.00 0.01 0.01 0.01 0.01 0.01 0.01 0.01 0.02 0.02 0.02 0.02 0.02 0.03 0.04 0.04 0.04 0.04 0.04 0.04 0.04 0.04 0.05 0.04 0.06
MSLP
1024.38 1024.41 1024.38 1024.20 1023.83 1023.28 1022.59 1021.88 1021.25 1020.80 1020.60 1020.64 1020.86 1021.14 1021.34 1021.29 1020.88 1020.07 1018.85 1017.29 1015.51 1013.66 1011.89 1010.32 1009.02 1008.05 1007.42 1007.10 1007.06 1007.29 1007.75 1008.42 1009.28 1010.29 1011.41 1012.58 1013.74 1014.82 1015.77 1016.56 1017.18 1017.66 1018.05 1018.40
1024.91 1024.95 1024.92 1024.73 1024.33 1023.74 1023.03 1022.29 1021.65 1021.24 1021.10 1021.26 1021.63 1022.10 1022.49 1022.63 1022.39 1021.68 1020.50 1018.90 1017.01 1014.98 1012.97 1011.14 1009.58 1008.36 1007.51 1007.02 1006.86 1006.99 1007.40 1008.04 1008.88 1009.89 1011.01 1012.21 1013.40 1014.53 1015.54 1016.40 1017.08 1017.61 1018.03 1018.39
1025.55 1025.58 1025.53 1025.31 1024.88 1024.25 1023.49 1022.72 1022.07 1021.67 1021.59 1021.84 1022.34 1022.97 1023.55 1023.89 1023.82 1023.26 1022.17 1020.60 1018.67 1016.54 1014.37 1012.33 1010.55 1009.10 1008.03 1007.33 1007.00 1006.98 1007.26 1007.80 1008.57 1009.52 1010.62 1011.81 1013.03 1014.20 1015.27 1016.20 1016.95 1017.55 1018.01 1018.38
1026.27 1026.28 1026.19 1025.92 1025.44 1024.76 1023.95 1023.14 1022.47 1022.07 1022.01 1022.31 1022.90 1023.66 1024.40 1024.91 1025.02 1024.63 1023.69 1022.23 1020.35 1018.22 1015.99 1013.84 1011.91 1010.28 1009.02 1008.12 1007.57 1007.37 1007.47 1007.85 1008.47 1009.31 1010.33 1011.47 1012.67 1013.86 1014.98 1015.97 1016.80 1017.46 1017.98 1018.38
1027.05 1027.01 1026.87 1026.55 1026.01 1025.28 1024.43 1023.57 1022.87 1022.44 1022.37 1022.69 1023.33 1024.15 1025.00 1025.65 1025.93 1025.73 1024.96 1023.67 1021.94 1019.90 1017.73 1015.57 1013.58 1011.85 1010.44 1009.36 1008.62 1008.20 1008.09 1008.25 1008.68 1009.35 1010.22 1011.25 1012.39 1013.57 1014.70 1015.74 1016.63 1017.35 1017.91 1018.35
1027.84 1027.75 1027.55 1027.18 1026.60 1025.83 1024.94 1024.05 1023.31 1022.85 1022.76 1023.05 1023.68 1024.53 1025.42 1026.17 1026.58 1026.54 1025.97 1024.89 1023.35 1021.50 1019.46 1017.41 1015.46 1013.71 1012.22 1011.01 1010.10 1009.47 1009.13 1009.05 1009.24 1009.68 1010.36 1011.23 1012.25 1013.36 1014.46 1015.51 1016.43 1017.20 1017.81 1018.29
1028.62 1028.47 1028.23 1027.83 1027.22 1026.44 1025.54 1024.65 1023.90 1023.41 1023.28 1023.53 1024.11 1024.92 1025.81 1026.58 1027.08 1027.16 1026.76 1025.88 1024.58 1022.95 1021.12 1019.23 1017.41 1015.72 1014.23 1012.96 1011.92 1011.11 1010.55 1010.23 1010.15 1010.33 1010.77 1011.43 1012.27 1013.25 1014.28 1015.29 1016.21 1017.00 1017.66 1018.17
1029.35 1029.17 1028.90 1028.49 1027.90 1027.15 1026.29 1025.44 1024.71 1024.23 1024.07 1024.26 1024.77 1025.50 1026.32 1027.06 1027.56 1027.71 1027.43 1026.72 1025.62 1024.23 1022.63 1020.96 1019.31 1017.75 1016.32 1015.05 1013.94 1013.01 1012.26 1011.70 1011.37 1011.28 1011.44 1011.85 1012.47 1013.27 1014.17 1015.09 1015.98 1016.77 1017.45 1018.01
1030.02 1029.82 1029.56 1029.18 1028.65 1027.98 1027.22 1026.46 1025.80 1025.36 1025.20 1025.34 1025.77 1026.39 1027.10 1027.74 1028.19 1028.32 1028.09 1027.49 1026.56 1025.36 1023.98 1022.53 1021.08 1019.68 1018.37 1017.15 1016.04 1015.03 1014.14 1013.39 1012.82 1012.46 1012.34 1012.47 1012.84 1013.42 1014.14 1014.94 1015.76 1016.53 1017.21 1017.80
1030.61 1030.43 1030.21 1029.90 1029.47 1028.93 1028.32 1027.70 1027.16 1026.80 1026.67 1026.79 1027.14 1027.65 1028.21 1028.71 1029.04 1029.10 1028.84 1028.28 1027.43 1026.37 1025.18 1023.92 1022.66 1021.44 1020.27 1019.16 1018.08 1017.05 1016.08 1015.19 1014.42 1013.82 1013.44 1013.29 1013.39 1013.71 1014.23 1014.87 1015.58 1016.30 1016.97 1017.58
1031.13 1030.98 1030.83 1030.62 1030.33 1029.96 1029.52 1029.08 1028.70 1028.46 1028.39 1028.51 1028.80 1029.20 1029.62 1029.96 1030.13 1030.06 1029.73 1029.13 1028.31 1027.32 1026.25 1025.14 1024.05 1023.00 1021.98 1020.99 1020.00 1019.00 1018.00 1017.02 1016.11 1015.31 1014.68 1014.27 1014.10 1014.17 1014.46 1014.92 1015.49 1016.12 1016.76 1017.38
1031.59 1031.50 1031.42 1031.33 1031.18 1030.97 1030.73 1030.47 1030.27 1030.16 1030.18 1030.32 1030.58 1030.89 1031.19 1031.37 1031.38 1031.17 1030.72 1030.05 1029.21 1028.25 1027.24 1026.24 1025.28 1024.37 1023.50 1022.64 1021.76 1020.83 1019.85 1018.83 1017.82 1016.88 1016.05 1015.40 1014.97 1014.79 1014.84 1015.09 1015.50 1016.03 1016.61 1017.21
1032.01 1031.96 1031.96 1031.96 1031.94 1031.89 1031.81 1031.72 1031.68 1031.70 1031.81 1032.01 1032.26 1032.52 1032.71 1032.78 1032.66 1032.32 1031.77 1031.02 1030.13 1029.17 1028.19 1027.26 1026.40 1025.61 1024.87 1024.14 1023.37 1022.53 1021.60 1020.59 1019.53 1018.48 1017.50 1016.65 1015.99 1015.56 1015.37 1015.41 1015.65 1016.04 1016.54 1017.10
1032.37 1032.37 1032.42 1032.49 1032.55 1032.60 1032.65 1032.70 1032.78 1032.91 1033.11 1033.36 1033.62 1033.86 1034.01 1034.00 1033.80 1033.39 1032.77 1031.97 1031.06 1030.09 1029.14 1028.26 1027.47 1026.78 1026.14 1025.52 1024.86 1024.12 1023.26 1022.28 1021.21 1020.09 1018.99 1017.98 1017.12 1016.47 1016.05 1015.88 1015.93 1016.17 1016.55 1017.04
1032.68 1032.69 1032.76 1032.85 1032.96 1033.06 1033.17 1033.29 1033.46 1033.67 1033.93 1034.22 1034.52 1034.77 1034.91 1034.90 1034.69 1034.26 1033.63 1032.84 1031.95 1031.01 1030.09 1029.26 1028.53 1027.90 1027.35 1026.81 1026.25 1025.59 1024.80 1023.87 1022.81 1021.66 1020.48 1019.35 1018.32 1017.47 1016.85 1016.47 1016.32 1016.39 1016.64 1017.03
1032.90 1032.90 1032.95 1033.03 1033.12 1033.22 1033.33 1033.48 1033.67 1033.91 1034.21 1034.54 1034.88 1035.17 1035.35 1035.38 1035.23 1034.86 1034.30 1033.58 1032.75 1031.87 1031.03 1030.25 1029.58 1029.01 1028.51 1028.04 1027.54 1026.95 1026.23 1025.34 1024.31 1023.15 1021.92 1020.70 1019.54 1018.54 1017.73 1017.14 1016.80 1016.69 1016.79 1017.05
1033.00 1032.97 1032.97 1032.99 1033.03 1033.08 1033.16 1033.28 1033.46 1033.70 1034.01 1034.37 1034.74 1035.08 1035.33 1035.45 1035.40 1035.15 1034.72 1034.13 1033.42 1032.66 1031.91 1031.21 1030.59 1030.07 1029.61 1029.18 1028.72 1028.17 1027.49 1026.65 1025.65 1024.50 1023.26 1021.98 1020.74 1019.60 1018.64 1017.88 1017.36 1017.07 1017.00 1017.11
1032.94 1032.86 1032.79 1032.74 1032.70 1032.68 1032.70 1032.77 1032.91 1033.13 1033.43 1033.80 1034.20 1034.59 1034.93 1035.16 1035.24 1035.16 1034.89 1034.47 1033.93 1033.32 1032.69 1032.08 1031.53 1031.05 1030.61 1030.20 1029.75 1029.23 1028.57 1027.77 1026.80 1025.67 1024.44 1023.15 1021.86 1020.64 1019.56 1018.67 1017.98 1017.52 1017.27 1017.22
1032.70 1032.56 1032.42 1032.30 1032.18 1032.10 1032.06 1032.08 1032.18 1032.36 1032.65 1033.01 1033.43 1033.87 1034.28 1034.62 1034.85 1034.93 1034.85 1034.63 1034.27 1033.83 1033.33 1032.83 1032.35 1031.90 1031.48 1031.06 1030.61 1030.09 1029.45 1028.67 1027.73 1026.65 1025.45 1024.18 1022.88 1021.63 1020.48 1019.48 1018.66 1018.05 1017.64 1017.42
1032.31 1032.11 1031.91 1031.72 1031.56 1031.43 1031.35 1031.33 1031.40 1031.56 1031.82 1032.17 1032.60 1033.07 1033.54 1033.97 1034.32 1034.56 1034.66 1034.61 1034.45 1034.17 1033.82 1033.43 1033.02 1032.61 1032.19 1031.77 1031.30 1030.77 1030.13 1029.37 1028.47 1027.44 1026.30 1025.08 1023.81 1022.57 1021.39 1020.33 1019.42 1018.68 1018.12 1017.74
1031.79 1031.54 1031.30 1031.08 1030.90 1030.75 1030.67 1030.64 1030.70 1030.85 1031.10 1031.44 1031.86 1032.33 1032.84 1033.33 1033.77 1034.12 1034.37 1034.49 1034.49 1034.37 1034.16 1033.87 1033.53 1033.16 1032.75 1032.31 1031.83 1031.28 1030.65 1029.91 1029.05 1028.09 1027.02 1025.87 1024.67 1023.47 1022.31 1021.22 1020.25 1019.41 1018.72 1018.20
1031.21 1030.94 1030.69 1030.47 1030.29 1030.17 1030.10 1030.11 1030.18 1030.34 1030.58 1030.90 1031.30 1031.77 1032.27 1032.78 1033.27 1033.71 1034.06 1034.31 1034.44 1034.46 1034.37 1034.18 1033.91 1033.57 1033.18 1032.74 1032.24 1031.68 1031.05 1030.33 1029.53 1028.63 1027.64 1026.59 1025.48 1024.35 1023.23 1022.15 1021.15 1020.24 1019.45 1018.80
1030.66 1030.38 1030.14 1029.94 1029.81 1029.73 1029.72 1029.77 1029.88 1030.06 1030.30 1030.61 1030.99 1031.42 1031.90 1032.40 1032.90 1033.37 1033.79 1034.12 1034.36 1034.49 1034.49 1034.39 1034.19 1033.90 1033.53 1033.09 1032.58 1032.02 1031.39 1030.70 1029.94 1029.11 1028.21 1027.25 1026.24 1025.20 1024.14 1023.10 1022.09 1021.14 1020.28 1019.51
1030.20 1029.93 1029.72 1029.57 1029.49 1029.48 1029.54 1029.65 1029.82 1030.02 1030.27 1030.57 1030.92 1031.31 1031.75 1032.21 1032.70 1033.17 1033.62 1034.00 1034.30 1034.51 1034.60 1034.57 1034.42 1034.18 1033.83 1033.40 1032.90 1032.34 1031.73 1031.06 1030.34 1029.57 1028.75 1027.89 1026.97 1026.02 1025.03 1024.03 1023.04 1022.07 1021.14 1020.28
1029.87 1029.63 1029.46 1029.37 1029.36 1029.43 1029.56 1029.74 1029.95 1030.19 1030.46 1030.74 1031.06 1031.41 1031.80 1032.22 1032.67 1033.13 1033.57 1033.97 1034.31 1034.56 1034.71 1034.74 1034.65 1034.44 1034.12 1033.71 1033.23 1032.67 1032.07 1031.42 1030.74 1030.02 1029.27 1028.48 1027.65 1026.77 1025.86 1024.91 1023.94 1022.96 1021.99 1021.06
1029.66 1029.47 1029.36 1029.33 1029.39 1029.53 1029.73 1029.96 1030.23 1030.50 1030.78 1031.07 1031.36 1031.68 1032.03 1032.40 1032.81 1033.23 1033.65 1034.05 1034.40 1034.68 1034.86 1034.93 1034.87 1034.70 1034.41 1034.02 1033.54 1033.00 1032.41 1031.78 1031.13 1030.45 1029.75 1029.02 1028.25 1027.45 1026.59 1025.69 1024.75 1023.77 1022.79 1021.81
Thickness
5504 5503 5499 5495 5492 5494 5495 5495 5495 5492 5483 5479 5480 5478 5476 5474 5474 5476 5479 5482 5486 5489 5494 5499 5504 5511 5518 5525 5532 5539 5545 5551 5558 5564 5568 5574 5578 5583 5587 5590 5593 5597 5600 5603
5498 5490 5485 5481 5479 5480 5482 5481 5482 5477 5468 5468 5467 5467 5467 5463 5462 5463 5465 5468 5472 5476 5482 5487 5493 5498 5505 5512 5519 5525 5532 5538 5545 5551 5556 5561 5566 5570 5575 5579 5582 5586 5589 5593
5485 5477 5471 5469 5469 5469 5471 5470 5468 5464 5457 5456 5456 5465 5460 5454 5451 5451 5453 5455 5459 5463 5468 5474 5480 5486 5492 5498 5505 5512 5518 5524 5531 5537 5543 5548 5553 5558 5563 5568 5572 5576 5579 5583
5468 5462 5459 5460 5458 5456 5463 5460 5454 5450 5450 5455 5451 5462 5459 5448 5443 5441 5442 5444 5447 5451 5456 5462 5468 5473 5479 5485 5491 5499 5505 5512 5518 5524 5530 5536 5541 5546 5551 5556 5560 5565 5569 5573
5457 5450 5449 5449 5447 5443 5448 5444 5443 5441 5441 5441 5441 5442 5455 5436 5434 5433 5432 5433 5435 5439 5443 5448 5454 5460 5466 5471 5478 5485 5492 5498 5505 5511 5517 5523 5528 5533 5538 5543 5549 5554 5559 5563
5442 5436 5434 5433 5434 5432 5431 5434 5434 5431 5434 5434 5431 5432 5446 5431 5424 5424 5423 5422 5424 5426 5431 5436 5442 5447 5454 5460 5466 5472 5479 5485 5491 5498 5504 5510 5516 5521 5526 5532 5538 5543 5548 5553
5436 5429 5422 5420 5424 5425 5423 5429 5438 5437 5434 5439 5423 5422 5428 5412 5409 5410 5410 5411 5413 5415 5420 5425 5431 5436 5441 5447 5453 5459 5465 5472 5478 5484 5491 5498 5504 5509 5515 5520 5526 5531 5537 5544
5427 5430 5412 5406 5408 5409 5409 5413 5421 5427 5435 5435 5415 5418 5417 5396 5395 5397 5398 5399 5401 5405 5409 5413 5418 5423 5428 5434 5440 5445 5451 5457 5464 5471 5477 5484 5491 5497 5503 5508 5514 5520 5527 5533
5412 5413 5400 5395 5393 5395 5400 5401 5394 5398 5400 5403 5415 5405 5395 5387 5387 5388 5389 5390 5391 5394 5397 5401 5406 5410 5415 5420 5426 5431 5437 5444 5451 5458 5464 5471 5477 5484 5491 5496 5503 5510 5515 5520
5390 5391 5392 5386 5386 5382 5383 5383 5386 5389 5396 5410 5414 5403 5400 5379 5379 5379 5379 5380 5381 5383 5387 5391 5394 5398 5402 5407 5413 5418 5425 5431 5438 5444 5451 5458 5465 5471 5478 5484 5492 5498 5504 5509
5376 5377 5384 5379 5372 5372 5368 5368 5370 5376 5376 5391 5400 5398 5379 5371 5369 5369 5369 5368 5369 5372 5375 5379 5383 5387 5391 5396 5401 5407 5413 5420 5426 5433 5439 5446 5453 5459 5466 5473 5480 5486 5492 5498
5365 5369 5373 5370 5358 5353 5353 5351 5353 5365 5364 5365 5376 5377 5361 5356 5356 5355 5356 5357 5358 5361 5363 5367 5371 5375 5379 5384 5389 5395 5400 5407 5414 5421 5428 5434 5442 5448 5455 5462 5468 5474 5481 5487
5354 5354 5367 5375 5358 5343 5338 5334 5329 5333 5346 5354 5362 5369 5351 5346 5344 5344 5345 5346 5347 5350 5353 5356 5359 5363 5366 5371 5377 5382 5388 5395 5401 5408 5415 5422 5429 5436 5443 5450 5457 5463 5470 5476
5348 5343 5350 5362 5357 5340 5330 5325 5320 5323 5337 5344 5346 5352 5343 5336 5335 5335 5335 5335 5337 5339 5342 5344 5347 5350 5354 5358 5363 5370 5376 5382 5389 5395 5403 5410 5417 5424 5431 5438 5445 5452 5458 5464
5339 5338 5330 5330 5329 5323 5320 5318 5315 5311 5320 5328 5336 5332 5329 5324 5321 5322 5322 5323 5325 5328 5330 5333 5335 5339 5342 5347 5351 5357 5364 5370 5376 5384 5391 5398 5404 5411 5419 5426 5433 5439 5446 5452
5326 5324 5319 5319 5318 5314 5311 5311 5309 5306 5307 5311 5314 5317 5316 5309 5309 5310 5310 5311 5312 5315 5318 5320 5323 5326 5330 5334 5339 5345 5351 5357 5364 5371 5379 5386 5392 5399 5407 5414 5420 5427 5433 5439
5318 5311 5316 5327 5311 5306 5316 5308 5301 5299 5297 5298 5306 5308 5301 5298 5298 5297 5297 5297 5299 5302 5304 5307 5310 5313 5317 5321 5326 5332 5339 5346 5353 5360 5367 5374 5381 5388 5394 5401 5408 5415 5421 5427
5304 5304 5306 5314 5306 5309 5315 5293 5292 5289 5287 5284 5286 5287 5285 5284 5284 5284 5283 5284 5288 5290 5292 5295 5298 5301 5305 5310 5315 5321 5328 5335 5342 5349 5356 5362 5369 5376 5383 5390 5397 5403 5410 5416
5299 5299 5303 5304 5309 5314 5303 5288 5280 5279 5285 5280 5275 5276 5275 5274 5279 5284 5278 5274 5275 5278 5280 5283 5286 5290 5294 5299 5304 5310 5317 5324 5331 5337 5344 5350 5357 5364 5371 5379 5385 5392 5398 5404
5288 5288 5295 5293 5299 5305 5304 5279 5271 5271 5282 5276 5268 5267 5266 5266 5278 5280 5269 5265 5266 5268 5270 5273 5276 5280 5284 5289 5293 5299 5306 5313 5319 5326 5332 5338 5345 5352 5360 5367 5374 5381 5387 5393
5282 5280 5281 5285 5288 5295 5280 5266 5265 5274 5282 5265 5261 5259 5256 5256 5258 5257 5255 5255 5257 5258 5260 5263 5266 5270 5274 5278 5283 5289 5296 5301 5308 5314 5321 5328 5335 5342 5349 5357 5364 5370 5376 5382
5284 5282 5273 5275 5277 5284 5264 5260 5263 5268 5258 5253 5252 5250 5247 5246 5245 5245 5246 5246 5248 5249 5251 5253 5257 5260 5264 5268 5273 5279 5285 5290 5297 5305 5312 5319 5325 5332 5339 5347 5355 5361 5366 5372
5274 5276 5277 5273 5280 5267 5255 5254 5251 5248 5246 5245 5243 5240 5237 5236 5237 5237 5237 5237 5238 5240 5242 5244 5246 5250 5255 5258 5263 5269 5274 5280 5287 5294 5301 5308 5316 5323 5330 5338 5345 5351 5357 5362
5266 5254 5258 5257 5264 5255 5248 5244 5241 5238 5236 5235 5232 5230 5228 5228 5228 5228 5228 5229 5230 5231 5233 5234 5237 5241 5245 5249 5253 5258 5264 5270 5277 5284 5291 5298 5306 5313 5320 5327 5334 5340 5347 5353
5266 5250 5250 5251 5253 5248 5245 5240 5236 5231 5228 5225 5224 5222 5221 5220 5220 5220 5220 5221 5222 5223 5225 5226 5228 5231 5235 5239 5244 5249 5254 5260 5267 5274 5281 5288 5295 5302 5309 5316 5323 5330 5336 5341
5255 5248 5251 5260 5252 5244 5244 5236 5228 5223 5220 5218 5216 5215 5215 5213 5212 5212 5212 5213 5213 5215 5217 5218 5221 5223 5227 5231 5235 5240 5244 5250 5257 5264 5271 5278 5284 5291 5298 5305 5312 5318 5324 5330